Tracking 23583 objects as of 28-Jul-2021
HD Live streaming from Space Station
objects crossing your sky now

CRYOCUBE

Track CRYOCUBE now!
10-day predictions
CRYOCUBE is classified as:


NORAD ID: 45258
Int'l Code: 1998-067RB
Perigee: 398.1 km
Apogee: 406.1 km
Inclination: 51.6 °
Period: 92.5 minutes
Semi major axis: 6773 km
RCS: Unknown
Launch date: November 20, 1998
Source: United States (US)
Launch site: TYURATAM MISSILE AND SPACE COMPLEX (TTMTR)

Uplink (MHz):
Downlink (MHz): 437.350/2402.500
Beacon (MHz):
Mode: 9600bps GMSK
Call sign: WJ2XOY
Status: Inactive

aabbcc
Your satellite tracking list
Your tracking list is empty




NASA's NSSDC Master Catalog

Two Line Element Set (TLE):
1 45258U 98067RB  21209.37830466  .00013250  00000-0  18323-3 0  9996
2 45258  51.6390 124.0064 0005898  53.6540 306.4996 15.57465723 81584
Source of the keplerian elements: AFSPC